Temp
13 13 12 11 11 12 13 12 12 13 14 14 14 13 13 11 11 10 10 9 9 9 9 9 9 9 9 9 9 10 10 10 10 10 10 10 10 10 10 10 10 10 10
13 13 12 12 12 12 12 12 13 13 14 14 13 12 12 11 10 10 9 9 9 9 9 9 9 9 9 9 9 10 10 10 10 10 10 10 10 10 10 10 10 10 10
13 13 12 12 13 12 12 12 13 13 13 13 13 12 12 11 9 9 9 9 9 9 9 9 9 9 9 9 9 9 9 9 9 9 9 9 9 10 10 10 10 9 10
13 12 12 12 12 12 12 13 13 13 13 13 13 12 11 10 9 8 8 8 8 8 8 9 9 9 9 9 8 8 8 8 8 8 8 9 9 9 9 9 9 8 6
13 13 12 12 12 12 12 13 13 13 13 13 12 12 11 10 9 8 8 7 7 7 8 8 8 8 8 8 8 7 7 7 7 7 7 6 7 7 6 5 5 6 5
13 13 12 12 12 12 12 13 12 12 12 12 12 11 10 9 8 7 7 7 7 7 7 7 7 7 7 7 6 6 6 6 4 6 5 4 3 3 3 3 3 4 4
13 13 13 12 12 12 12 12 12 12 12 12 11 10 9 8 8 7 7 7 7 6 6 6 6 6 6 5 5 6 6 5 4 4 4 2 2 1 1 2 2 3 3
13 12 13 12 12 12 12 12 12 11 11 11 11 10 9 8 8 7 6 6 6 6 5 5 5 5 5 5 4 4 4 4 3 3 1 1 1 1 1 1 2 2 3
13 13 12 12 12 12 12 12 11 11 11 11 10 10 9 9 8 7 6 6 6 5 5 5 5 4 4 4 3 3 2 2 1 -0 -1 -0 -0 0 1 1 2 2 2
12 12 12 11 12 12 12 11 11 11 11 10 10 9 9 8 8 7 6 6 5 5 5 4 4 4 3 2 2 2 1 1 0 -1 -1 -1 -1 -0 0 1 1 2 1
11 11 11 11 11 11 11 11 11 10 10 9 9 8 7 7 6 5 5 6 6 5 5 4 4 3 2 1 1 -0 -0 -0 -0 -1 -2 -2 -1 -1 -0 0 0 -0 -0
11 10 11 11 11 11 10 11 10 10 9 9 8 7 7 6 4 3 3 3 3 4 3 3 3 2 0 -0 -0 -1 -1 -2 -3 -3 -3 -2 -2 -1 -1 -1 -1 -1 -1
10 10 10 11 10 10 10 10 10 9 8 8 7 6 6 5 3 3 2 1 1 2 2 2 2 0 -0 -1 -1 -2 -2 -2 -3 -4 -4 -3 -3 -3 -3 -3 -3 -2 -2
10 11 10 10 9 10 9 9 9 8 8 7 6 5 4 3 3 2 1 -0 -0 -1 0 0 -0 -1 -2 -2 -2 -2 -2 -3 -4 -5 -5 -4 -4 -4 -4 -4 -3 -3 -3
10 10 10 9 9 8 8 8 8 7 7 6 5 4 4 2 2 1 0 -0 -2 -3 -3 -2 -3 -3 -3 -3 -4 -5 -6 -5 -6 -6 -5 -5 -5 -5 -5 -4 -4 -4 -4
9 9 9 8 8 7 7 7 7 6 6 5 4 3 2 2 1 0 -0 -1 -2 -3 -5 -3 -4 -4 -5 -5 -5 -6 -6 -6 -6 -6 -6 -6 -6 -5 -5 -5 -5 -5 -5
9 8 8 7 7 7 6 6 6 5 5 4 3 2 1 1 0 -0 -1 -1 -2 -3 -5 -4 -5 -5 -6 -6 -6 -6 -6 -6 -6 -6 -7 -7 -6 -6 -6 -6 -5 -5 -5
7 7 7 7 7 7 6 6 5 5 4 3 2 1 1 -0 -1 -1 -2 -3 -3 -4 -5 -6 -6 -7 -7 -7 -7 -7 -7 -7 -7 -7 -8 -7 -7 -7 -7 -7 -6 -6 -5
7 5 6 6 6 6 6 5 4 4 3 2 1 1 -0 -1 -1 -2 -3 -4 -5 -5 -6 -7 -7 -7 -7 -7 -7 -7 -7 -7 -8 -8 -7 -6 -7 -8 -7 -7 -7 -7 -7
5 6 6 6 6 5 5 4 3 3 2 1 0 -0 -1 -2 -3 -4 -4 -5 -6 -7 -7 -7 -8 -8 -8 -8 -8 -8 -8 -8 -8 -7 -7 -6 -8 -6 -6 -6 -7 -6 -6
5 5 6 6 5 5 4 3 3 2 1 0 0 -0 -1 -3 -4 -5 -6 -6 -7 -7 -7 -8 -8 -8 -8 -8 -8 -9 -9 -8 -8 -8 -8 -8 -8 -6 -6 -6 -6 -6 -6
4 4 4 5 4 4 3 2 2 1 0 0 -0 -1 -2 -4 -4 -6 -7 -7 -7 -7 -7 -8 -8 -8 -8 -9 -9 -9 -9 -8 -9 -9 -8 -8 -7 -6 -6 -7 -7 -8 -7
3 4 4 4 3 3 2 1 1 1 0 -0 -1 -2 -3 -5 -6 -7 -7 -7 -7 -8 -8 -8 -8 -9 -9 -9 -9 -9 -9 -9 -9 -9 -9 -9 -6 -7 -7 -7 -7 -6 -6
3 3 3 2 2 2 1 1 1 0 -1 -2 -3 -4 -6 -7 -7 -7 -7 -7 -7 -8 -8 -8 -9 -9 -9 -9 -9 -9 -9 -9 -9 -8 -8 -10 -8 -7 -7 -7 -6 -6 -6
1 2 1 1 1 1 0 0 0 -1 -2 -2 -4 -6 -7 -7 -7 -8 -7 -7 -8 -8 -8 -8 -9 -9 -9 -9 -9 -10 -9 -10 -9 -9 -7 -10 -8 -9 -8 -7 -6 -6 -7
1 1 1 1 -0 -0 -1 -1 -2 -2 -3 -5 -6 -7 -7 -8 -8 -8 -8 -8 -8 -8 -9 -9 -9 -8 -8 -8 -8 -9 -9 -10 -10 -11 -7 -10 -10 -10 -10 -9 -8 -7 -6
Height
1531 1533 1534 1534 1535 1536 1537 1537 1537 1536 1534 1532 1530 1529 1528 1527 1526 1526 1527 1526 1527 1526 1526 1526 1527 1526 1526 1525 1525 1523 1523 1522 1520 1520 1519 1518 1517 1517 1518 1517 1517 1517 1517
1528 1529 1531 1532 1533 1534 1534 1535 1535 1534 1531 1529 1528 1526 1525 1525 1525 1525 1524 1524 1526 1525 1524 1523 1525 1524 1524 1523 1523 1521 1520 1519 1518 1517 1516 1515 1514 1514 1513 1513 1513 1512 1512
1525 1527 1529 1531 1532 1532 1533 1533 1532 1531 1529 1528 1526 1523 1523 1524 1523 1524 1523 1523 1525 1524 1522 1522 1524 1523 1522 1521 1521 1519 1517 1516 1515 1514 1513 1511 1509 1509 1508 1507 1507 1507 1506
1523 1525 1526 1528 1529 1530 1531 1531 1529 1528 1527 1525 1523 1522 1521 1521 1522 1522 1522 1522 1523 1522 1521 1521 1522 1521 1520 1519 1518 1516 1514 1512 1511 1509 1509 1507 1506 1504 1503 1502 1502 1502 1502
1521 1522 1523 1525 1527 1528 1529 1529 1527 1526 1524 1522 1521 1520 1519 1519 1520 1521 1522 1522 1521 1520 1519 1520 1520 1518 1517 1516 1515 1513 1511 1509 1507 1505 1504 1502 1501 1499 1498 1497 1497 1496 1497
1518 1519 1521 1522 1523 1524 1525 1526 1525 1524 1523 1521 1520 1519 1519 1518 1520 1520 1520 1520 1519 1519 1519 1518 1518 1516 1514 1512 1510 1508 1507 1505 1503 1501 1500 1498 1496 1495 1493 1492 1492 1492 1492
1514 1515 1517 1518 1520 1521 1522 1523 1523 1522 1521 1520 1519 1518 1518 1518 1518 1519 1519 1519 1518 1517 1517 1516 1514 1513 1511 1508 1506 1504 1503 1502 1499 1497 1496 1494 1492 1490 1488 1487 1487 1487 1487
1510 1512 1514 1516 1517 1518 1519 1520 1521 1521 1520 1519 1518 1517 1517 1519 1517 1517 1517 1517 1516 1515 1514 1512 1511 1509 1506 1504 1501 1500 1498 1497 1495 1493 1491 1490 1487 1485 1484 1483 1482 1481 1481
1505 1508 1511 1513 1514 1515 1516 1517 1518 1518 1518 1517 1516 1516 1515 1516 1515 1515 1514 1514 1514 1513 1511 1509 1508 1505 1502 1500 1497 1495 1494 1492 1491 1489 1487 1485 1482 1481 1480 1478 1477 1476 1475
1500 1504 1506 1510 1511 1512 1513 1514 1515 1515 1515 1514 1514 1513 1513 1514 1513 1513 1512 1511 1510 1510 1508 1506 1504 1501 1498 1495 1493 1491 1489 1487 1486 1484 1482 1479 1477 1475 1474 1472 1470 1469 1466
1496 1500 1503 1506 1508 1510 1510 1511 1511 1512 1512 1512 1511 1511 1510 1510 1509 1509 1506 1506 1506 1505 1503 1501 1498 1495 1493 1490 1489 1486 1484 1482 1480 1478 1475 1473 1470 1468 1467 1465 1462 1459 1457
1490 1495 1499 1503 1506 1507 1508 1508 1508 1508 1509 1509 1508 1508 1507 1507 1506 1506 1504 1500 1498 1495 1495 1494 1492 1490 1487 1485 1483 1481 1478 1476 1474 1471 1469 1466 1464 1462 1459 1456 1454 1451 1449
1482 1488 1494 1497 1501 1503 1504 1505 1505 1505 1505 1505 1505 1504 1504 1503 1502 1501 1500 1497 1493 1489 1487 1487 1486 1484 1482 1480 1478 1476 1472 1469 1466 1463 1461 1459 1456 1453 1450 1447 1445 1443 1440
1477 1484 1489 1493 1497 1499 1501 1502 1502 1502 1502 1502 1502 1501 1501 1500 1499 1497 1495 1493 1487 1484 1481 1480 1478 1477 1476 1475 1472 1469 1464 1460 1456 1454 1452 1450 1447 1444 1441 1438 1436 1433 1431
1473 1479 1485 1489 1492 1495 1498 1499 1499 1499 1499 1498 1498 1497 1497 1496 1494 1493 1491 1489 1486 1480 1474 1473 1472 1471 1468 1465 1462 1459 1455 1452 1449 1447 1444 1441 1438 1435 1432 1429 1426 1423 1420
1469 1475 1479 1485 1488 1493 1495 1496 1496 1496 1495 1494 1494 1493 1492 1492 1490 1488 1486 1484 1482 1478 1472 1469 1466 1463 1461 1458 1455 1451 1447 1444 1441 1438 1435 1432 1428 1426 1423 1420 1416 1413 1411
1465 1471 1475 1480 1486 1489 1491 1492 1493 1493 1492 1491 1490 1489 1488 1486 1485 1483 1481 1479 1476 1474 1467 1462 1461 1458 1454 1450 1447 1444 1440 1436 1432 1429 1425 1423 1420 1417 1413 1410 1407 1404 1401
1463 1469 1473 1479 1483 1486 1488 1489 1489 1489 1488 1486 1486 1485 1484 1481 1479 1478 1475 1473 1471 1468 1464 1456 1454 1450 1447 1444 1440 1436 1433 1429 1425 1421 1418 1414 1410 1407 1403 1400 1397 1394 1391
1461 1467 1471 1476 1480 1483 1485 1485 1485 1484 1483 1482 1480 1479 1478 1476 1474 1472 1469 1467 1464 1461 1458 1452 1446 1445 1441 1438 1432 1428 1424 1420 1417 1414 1410 1405 1401 1396 1393 1390 1387 1384 1380
1458 1465 1469 1474 1478 1480 1481 1481 1481 1480 1478 1477 1476 1474 1473 1471 1469 1466 1463 1461 1458 1455 1452 1448 1443 1439 1436 1432 1428 1421 1415 1413 1408 1405 1400 1396 1392 1388 1384 1381 1376 1372 1367
1458 1461 1467 1470 1474 1476 1477 1477 1477 1475 1474 1473 1472 1469 1469 1466 1464 1461 1459 1457 1454 1450 1447 1443 1439 1435 1431 1425 1421 1417 1410 1405 1400 1396 1389 1386 1382 1377 1374 1370 1365 1361 1356
1457 1461 1466 1468 1471 1472 1472 1473 1472 1470 1469 1467 1466 1465 1463 1461 1458 1455 1454 1452 1450 1446 1443 1439 1435 1430 1425 1421 1416 1412 1406 1400 1390 1390 1383 1376 1374 1368 1364 1359 1355 1351 1347
1459 1462 1465 1466 1467 1467 1468 1468 1467 1465 1464 1463 1461 1459 1457 1454 1452 1450 1447 1446 1444 1442 1440 1436 1429 1425 1419 1415 1410 1405 1401 1396 1388 1383 1378 1366 1366 1358 1355 1350 1347 1342 1337
1463 1462 1464 1463 1463 1464 1464 1463 1462 1461 1460 1458 1456 1453 1451 1449 1447 1444 1443 1441 1438 1435 1432 1428 1423 1418 1414 1410 1407 1401 1395 1388 1382 1377 1373 1360 1357 1350 1345 1340 1337 1333 1329
1461 1461 1463 1462 1460 1461 1460 1459 1458 1456 1455 1453 1451 1449 1447 1444 1442 1441 1438 1435 1431 1428 1425 1421 1416 1413 1409 1404 1400 1395 1388 1382 1371 1367 1364 1356 1348 1340 1334 1327 1326 1323 1320
1460 1461 1460 1458 1458 1458 1456 1455 1453 1452 1450 1449 1448 1445 1442 1439 1438 1436 1433 1429 1424 1420 1417 1412 1408 1405 1401 1397 1393 1389 1383 1376 1369 1357 1355 1350 1343 1338 1323 1318 1316 1314 1309
Wind_Speed
17 16 11 12 9 8 6 5 6 7 9 9 10 10 8 6 6 7 7 5 3 2 2 3 5 5 7 8 10 10 11 12 13 13 14 14 14 14 13 13 13 13 14
19 18 18 17 12 10 8 7 7 8 9 9 8 8 6 5 4 7 6 5 3 3 3 4 6 7 8 9 10 12 13 14 15 15 16 16 16 16 17 17 17 18 19
21 20 20 17 14 10 9 8 7 7 8 8 7 7 6 4 4 5 6 6 5 4 4 5 7 9 10 12 13 15 16 17 18 17 17 18 18 19 18 19 18 19 20
17 19 18 18 14 11 9 8 6 5 6 7 6 5 4 4 4 5 6 7 6 7 7 8 9 10 11 12 13 15 17 19 19 19 18 19 19 20 20 19 20 18 17
22 23 19 17 13 11 10 7 4 5 6 6 5 4 3 1 3 3 4 5 6 8 10 11 12 11 13 15 17 17 18 19 18 19 18 17 17 17 17 17 17 17 15
26 25 21 18 15 12 10 6 3 3 5 5 4 3 3 3 1 4 6 8 10 10 16 13 13 15 19 20 19 18 20 19 18 18 16 17 18 18 18 18 17 16 16
27 27 23 20 16 13 11 6 2 2 5 5 4 2 2 2 1 3 6 8 11 15 14 15 19 20 22 21 21 23 21 18 18 18 21 19 18 19 20 20 20 20 21
31 28 24 20 16 15 11 7 2 1 4 6 5 2 1 1 1 2 6 11 13 12 13 18 20 25 24 24 23 21 20 19 22 21 20 20 22 24 23 23 23 23 23
33 29 25 22 18 17 12 8 3 1 3 5 6 4 1 1 4 7 10 11 13 14 17 17 23 24 23 23 22 23 20 23 22 19 20 24 26 25 25 24 25 24 25
33 31 28 24 20 18 14 9 4 2 3 4 5 5 3 4 3 4 11 13 13 16 18 23 21 21 21 19 22 23 24 26 24 20 25 27 26 26 26 27 27 27 28
34 32 28 25 23 19 15 10 5 3 4 5 6 6 5 6 8 9 15 14 20 20 20 21 22 19 20 21 21 22 26 30 30 28 29 30 29 30 29 29 29 29 29
37 34 30 26 23 20 15 11 6 3 4 6 7 7 7 7 9 10 16 23 25 27 25 23 21 18 19 20 21 22 24 25 24 27 30 31 29 29 29 29 29 30 31
42 38 32 28 27 23 17 11 7 4 5 6 8 9 9 10 11 13 16 20 26 31 30 28 20 22 20 19 21 24 30 33 35 32 31 27 28 28 29 30 32 32 32
43 38 33 30 27 23 15 11 8 6 6 8 9 10 10 10 12 14 16 19 26 27 32 28 28 24 19 23 29 32 35 34 31 27 28 27 28 30 32 32 32 32 32
42 37 34 31 27 21 17 11 8 7 8 9 11 11 12 12 13 15 18 20 21 21 31 27 25 31 34 34 32 32 33 35 28 29 28 29 31 32 30 30 30 31 31
41 38 35 32 25 22 15 11 9 8 9 11 13 13 13 14 15 17 19 19 20 23 24 31 33 35 36 35 36 35 33 29 30 30 29 33 29 28 28 30 31 32 32
42 38 34 28 24 19 15 11 8 9 10 12 13 14 15 16 18 19 20 21 22 23 28 35 34 35 35 36 32 30 30 30 36 34 28 29 27 30 31 31 32 33 34
38 36 29 26 23 19 13 10 9 11 12 14 14 15 16 18 19 21 21 22 23 23 28 35 32 34 35 33 31 29 34 35 32 32 29 31 31 31 32 31 31 32 32
36 31 27 25 21 15 12 10 10 12 13 14 15 16 18 20 21 22 22 24 25 25 24 29 34 35 37 34 31 40 37 38 35 38 34 34 32 30 29 29 29 30 33
31 30 27 21 16 13 11 10 11 12 13 14 16 17 19 21 22 22 23 24 22 22 24 28 32 36 35 32 39 38 42 40 41 38 38 32 31 30 30 31 30 30 28
31 27 24 19 14 10 9 10 12 13 14 14 16 17 19 19 19 21 19 17 20 23 25 28 32 35 32 36 37 39 43 43 43 40 35 38 38 35 35 34 33 29 28
26 23 18 14 11 8 9 11 12 13 14 16 17 18 19 19 20 16 16 16 17 20 24 27 32 36 39 36 38 39 39 41 40 35 40 45 37 39 41 39 36 33 32
22 18 14 10 8 8 10 10 11 13 16 17 19 19 19 18 16 18 18 18 19 22 22 28 34 33 35 35 34 37 35 37 41 43 43 46 39 45 43 40 37 33 26
14 11 9 7 5 8 9 11 13 15 17 18 19 18 16 16 18 17 17 21 22 26 30 32 32 32 29 29 31 34 34 37 39 38 36 42 44 43 42 42 36 25 25
13 9 6 4 5 8 10 13 15 16 17 17 15 14 15 17 16 15 19 23 27 31 32 32 27 24 25 27 24 26 29 32 39 40 38 37 38 45 44 42 32 29 35
8 5 4 4 5 7 11 14 17 18 17 13 12 16 16 15 16 16 19 25 30 33 31 26 29 28 25 22 21 23 28 32 36 39 36 33 40 38 30 36 25 40 39
Wind_Direction
213 196 193 186 210 235 232 249 274 290 303 306 307 307 313 305 283 279 288 311 298 260 281 308 312 313 311 312 313 312 308 306 305 303 298 294 290 287 283 278 276 273 269
195 193 195 214 230 229 242 258 275 289 302 311 309 307 312 312 288 273 281 291 295 292 289 302 304 310 312 313 313 312 310 308 305 302 299 295 292 289 286 281 276 272 268
201 202 212 226 227 231 241 253 270 295 309 313 313 308 307 302 274 263 278 292 294 301 313 315 307 308 307 310 309 308 306 306 305 304 299 297 293 287 283 281 278 281 276
208 213 222 225 227 236 244 245 268 298 315 326 324 312 307 298 244 258 289 301 311 313 313 307 311 316 315 314 312 311 308 308 308 303 299 295 295 293 290 285 281 275 289
210 222 230 227 229 233 237 241 273 316 335 341 336 339 357 23 198 237 261 288 312 315 316 321 317 317 318 316 313 310 310 311 306 301 305 304 297 295 296 301 302 291 285
212 226 228 217 224 236 229 239 278 333 356 6 4 3 63 69 133 236 263 295 305 314 315 321 322 317 321 322 317 313 312 308 308 310 312 314 316 317 314 309 306 301 296
220 223 219 216 219 225 218 225 250 9 16 27 29 65 102 89 119 237 259 284 298 309 311 313 319 321 324 322 317 315 312 307 306 309 313 318 322 319 317 313 308 302 297
225 221 218 216 217 219 213 214 206 32 27 35 44 75 116 256 255 256 260 276 282 293 297 310 317 319 321 321 317 317 316 313 312 311 317 320 318 317 317 312 308 302 295
219 218 217 217 210 211 211 210 214 4 23 28 33 41 8 263 296 251 251 253 276 287 300 303 311 314 316 315 314 316 315 313 312 313 320 320 318 315 312 308 303 298 293
215 215 214 213 212 209 207 209 218 277 358 13 10 8 353 294 290 268 249 256 268 287 296 302 309 312 312 310 312 313 311 310 311 312 316 316 314 311 307 303 300 295 290
212 212 212 211 208 207 206 212 221 271 332 349 356 350 331 309 286 274 287 275 286 296 302 311 317 315 309 311 310 304 302 303 304 307 312 313 311 308 304 299 295 293 289
209 209 210 211 209 208 208 216 224 263 318 336 337 332 322 308 292 277 282 296 302 310 313 314 319 318 312 303 297 292 294 299 304 306 306 305 303 300 296 294 292 291 288
204 206 208 210 208 208 207 215 232 266 300 318 325 323 315 305 292 288 289 298 302 309 314 317 321 318 310 300 293 290 291 295 299 302 303 301 300 296 294 292 292 290 288
204 206 208 207 205 206 208 213 237 262 294 312 316 314 306 297 292 292 295 301 306 307 310 314 318 321 316 300 295 294 297 302 307 305 303 300 297 296 297 294 291 289 286
202 204 206 203 201 208 209 222 245 274 293 305 310 309 304 297 296 297 297 299 300 301 309 310 312 310 312 313 315 313 309 311 306 303 302 299 299 298 296 293 291 289 287
202 202 203 201 209 203 213 227 248 271 292 304 306 304 301 298 296 296 297 296 296 295 292 297 306 310 312 313 313 310 310 309 308 307 304 302 301 300 296 295 293 291 290
200 202 198 202 198 205 213 230 255 280 293 300 301 301 298 299 299 299 300 300 298 295 293 299 304 308 311 314 316 316 314 314 313 311 307 305 301 297 297 293 292 290 289
200 201 196 195 198 207 217 241 266 284 295 301 299 298 299 299 301 303 302 301 302 302 300 303 309 316 318 323 321 317 319 319 318 315 309 302 301 299 296 295 293 292 289
197 191 193 193 200 208 230 251 271 284 295 296 297 298 300 300 301 303 304 306 307 305 305 310 314 317 320 322 321 321 321 320 319 318 314 312 309 304 301 298 297 292 287
189 187 189 193 202 215 234 259 280 289 295 296 298 301 299 298 300 303 304 306 308 308 310 311 310 314 319 320 319 320 320 317 319 318 315 314 315 313 311 312 306 304 297
185 182 185 192 202 222 250 276 285 294 297 300 302 300 296 295 296 296 297 297 297 303 306 306 308 314 311 316 316 317 314 318 317 318 314 316 316 316 317 318 316 310 305
176 178 184 191 209 236 267 277 287 298 303 305 305 301 296 297 301 305 298 297 299 304 304 305 309 309 309 311 311 312 312 316 312 312 311 312 316 315 319 321 319 311 303
171 177 188 199 224 255 277 284 299 304 306 308 306 303 299 302 305 306 308 310 302 297 300 305 305 307 307 308 310 313 312 306 304 307 309 306 314 314 318 315 316 316 308
181 185 201 221 256 277 287 301 306 307 310 309 305 299 296 294 295 303 310 303 302 304 304 308 309 305 306 310 305 301 300 298 299 305 312 299 311 311 316 313 316 316 317
188 193 214 253 284 294 301 304 306 313 314 310 305 303 299 301 302 306 300 301 302 303 306 308 304 303 304 306 305 304 306 310 309 311 312 309 316 314 313 314 319 321 320
186 204 236 277 291 304 308 312 321 320 321 322 317 319 320 318 313 313 308 306 305 304 312 313 309 311 313 312 318 317 316 310 310 311 317 307 311 316 311 309 306 314 314